Regional Weather Roundup
Issued by NWS

Home | Current Version | Previous Version | Graphics & Text | Print | Product List | Glossary On
Versions: 1 2 3 4 5 6 7 8 9 10 11 12 13 14 15 16 17 18 19 20 21 22 23 24 25 26 27 28 29 30 31 32 33 34 35 36 37 38 39 40 41 42 43 44 45 46 47 48 49 50
662
ASUS43 KDTX 192301
RWRMI
MICHIGAN HOURLY REGIONAL WEATHER ROUNDUP
NATIONAL WEATHER SERVICE DETROIT/PONTIAC MI
600 PM EST SUN FEB 19 2017

NOTE: "FAIR" INDICATES FEW OR NO CLOUDS BELOW 12,000 FEET WITH NO
SIGNIFICANT WEATHER AND/OR OBSTRUCTION TO VISIBILITY.

MIZ047>049-052>055-059>063-066>070-074>076-081>083-200000-
SOUTHEAST LOWER MICHIGAN

CITY           SKY/WX    TMP DP  RH WIND       PRES   REMARKS
ADRIAN         PTCLDY    60  30  32 NW5       30.06R
ALMA           MOCLDY    55  27  34 NW6       30.07R
ANN ARBOR      CLEAR     60  26  27 W7        30.05R
BAD AXE        CLEAR     44  33  64 NE5       30.07R
CARO           CLEAR     46  38  75 N3        30.05R
DETROIT CITY   CLEAR     58  29  33 N8        30.05R
DETROIT        MOCLDY    60  28  29 NW10      30.05R
FLINT          PTCLDY    53  34  48 NW7       30.07R
GROSSE ILE     CLEAR     59  28  31 NW5       30.04R
HILLSDALE      CLEAR     57  30  35 W8        30.05S
HOWELL         PTCLDY    56  29  35 NW3       30.06R

CITY           SKY/WX    TMP DP  RH WIND       PRES   REMARKS
JACKSON        PTCLDY    58  27  30 NW6       30.06R
LAMBERTVILLE   PTCLDY    62  31  31 CALM      30.05R
LANSING        PTCLDY    57  29  34 NW7       30.07R
LAPEER         FAIR      53  31  44 W7        30.06R
MASON          PTCLDY    58  33  38 NW6       30.07R
MONROE         CLEAR     59  33  38 NW6       30.04R
MT. CLEMENS    MOCLDY    55  31  39 NW7       30.04R
PONTIAC        CLOUDY    55  32  41 NW7       30.05R
PORT HOPE        N/A     39  31  72 CALM      30.07R
PORT HURON     CLEAR     43  32  65 NE8       30.08R
TRI CITIES     PTCLDY    53  31  42 NW5       30.08R
MIDLAND        FAIR      53  29  39 CALM      30.07R
TROY           CLEAR     58  27  30 NW6       30.07R
SAGINAW HB     CLEAR     52  32  46 NW3       30.06R
$$
MIZ043>046-050>051-056>058-064>065-071>073-077>080-200000-
SOUTHWEST LOWER MICHIGAN

CITY           SKY/WX    TMP DP  RH WIND       PRES   REMARKS
BATTLE CREEK   CLEAR     59  27  29 NW8       30.07R
BENTON HARBOR  CLEAR     54  28  36 CALM      30.09R
BIG RAPIDS     CLEAR     53  23  30 NW3       30.07R
COLDWATER      CLEAR     59  28  30 W3        30.07R
FREMONT        FAIR      55  28  35 W6        30.07R
HOLLAND        CLOUDY    51  34  52 CALM      30.09R
GRAND RAPIDS   MOCLDY    57  29  34 W9        30.07R
IONIA          FAIR      57  30  35 NW5       30.06R
KALAMAZOO      CLEAR     58  23  26 NW7       30.08R
LUDINGTON      CLEAR     49  32  52 CALM      30.09R
MARSHALL       CLEAR     59  29  32 W5        30.06R
MOUNT PLEASANT PTCLDY    54  30  40 CALM      30.07R
MUSKEGON       PTCLDY    52  29  41 CALM      30.09R
SOUTH HAVEN    CLEAR     51  32  47 CALM      30.09R
$$
MIZ016>042-200000-
NORTHERN LOWER MICHIGAN

CITY           SKY/WX    TMP DP  RH WIND       PRES   REMARKS
ALPENA         CLEAR     39  30  70 N7        30.09R WCI  34
BEAVER ISLAND  PTCLDY    38  30  71 SW3       30.11R
BELLAIRE       CLOUDY    43  29  58 CALM      30.10R
CADILLAC       CLEAR     49  30  47 NW5       30.07R
CHARLEVOIX     PTCLDY    40  30  68 CALM      30.13R
FRANKFORT      PTCLDY    47  33  57 CALM      30.10R
GAYLORD        PTCLDY    43  28  55 VRB3      30.08R
GRAYLING       PTCLDY    43  31  63 NW6       30.09R
HARBOR SPRINGS CLOUDY    34  32  92 CALM      30.11R
HOUGHTON LAKE  CLOUDY    46  29  51 N5        30.07R
MANISTEE       CLOUDY    48  32  53 NW3       30.09R
OSCODA         CLEAR     40  30  67 SE3       30.07R
PELLSTON       PTCLDY    39  28  64 W5        30.10R
ROGERS CITY    CLEAR     41  30  64 CALM      30.10R
TRAVERSE CITY  MOCLDY    41  33  73 N5        30.09R
$$
MIZ007>008-015-200000-
EASTERN UPPER MICHIGAN

CITY           SKY/WX    TMP DP  RH WIND       PRES   REMARKS
KINROSS        CLEAR     36  29  75 N8        30.10R WCI  30
MACKINAC ISLAN CLEAR     38  30  72 W7        30.10R WCI  33
NEWBERRY       CLEAR     38  29  71 N6        30.09R WCI  33
S. S. MARIE    CLEAR     39  29  67 NW7       30.08R WCI  34
MUNISING         N/A     34  32  92 CALM      30.10R
$$
MIZ004>006-011>014-085-200000-
CENTRAL UPPER MICHIGAN

CITY           SKY/WX    TMP DP  RH WIND       PRES   REMARKS
MANISTIQUE     CLOUDY    37  32  80 SW3       30.10R
ESCANABA       CLOUDY    41  30  65 SE3       30.09S
MENOMINEE      PTCLDY    41  31  67 SE3       30.09R
SAWYER-GWINN   CLEAR     37  30  75 NE6       30.08R WCI  33
$$
MIZ001>003-009>011-084-200000-
WESTERN UPPER MICHIGAN

CITY           SKY/WX    TMP DP  RH WIND       PRES   REMARKS
IRON MOUNTAIN  PTCLDY    48  28  46 E5        30.04R
HOUGHTON       CLOUDY    36  28  73 E8        30.07R WCI  30
COPPER HARBOR    N/A     36  31  82 CALM      30.10R
IRONWOOD       PTCLDY    55  27  34 E5        29.99S
$$

ABBREVIATIONS USED IN REMARKS
   TC - TEMPERATURE IN CELSIUS
  WCI - WIND CHILL INDEX
   HX - HEAT INDEX
  VSB - VISIBILITY





USA.gov is the U.S. government's official web portal to all federal, state and local government web resources and services.